Epoch 2014 Aug. 11.0 TT = JDT 2456880.5
T 2014 Aug. 28.49407 TT MPCW
q 2.3916261 (2000.0) P Q
n 0.17587693 Peri. 253.50257 +0.98321102 -0.00497174
a 3.1549813 Node 106.49740 +0.06799379 +0.93761958
e 0.2419524 Incl. 10.96655 -0.16933085 +0.34762739
P 5.60
From 90 observations 2003 Sept. 22-2014 Nov. 28, mean residual 0".7.